User: anonymous   Login
Location: Caltech
(34.1382°N, 118.1253°W)
Time: 07:59:54
(UTC-07:00)
Language:

Courier 1B - Orbit

View from above orbital plane
View from above orbital plane
View from above satellite
View from above satellite

Ground track
Ground track

The orbit data is extracted from the following two-line orbital elements,

1    58U 60013A   17147.87294055 +.00000102 +00000-0 +21214-4 0  9990
2    58 028.3294 359.2762 0165051 185.0805 174.8059 13.46308962788034
Epoch (UTC): 27 May 2017 20:57:02
Eccentricity: 0.0165051
inclination: 28.3294°
perigee height: 962 km
apogee height: 1209 km
right ascension of ascending node: 359.2762°
argument of perigee: 185.0805°
revolutions per day: 13.46308962
mean anomaly at epoch: 174.8059°
orbit number at epoch: 78803

The dashed part of the orbit path shows where the satellite is in the earth's shadow,  

DLR